Jackson, KY

1:47 PM EDT on September 19, 2017 (GMT -0400)
Carroll

Weather History for KJKL - February, 2013

Change the Weather History Date:

Saturday, February 16, 2013

  Actual Average Record
Temperature  
Mean Temperature 27 °F 39 °F  
Max Temperature 33 °F 48 °F 72 °F (2006)
Min Temperature 21 °F 30 °F 2 °F (1991)
Degree Days  
Heating Degree Days 38 26  
Month to date heating degree days 437 442  
Since 1 July heating degree days 2893 3008  
Cooling Degree Days 0 0  
Month to date cooling degree days 0 0  
Year to date cooling degree days 0 0  
Moisture  
Dew Point 18 °F    
Average Humidity 68    
Maximum Humidity 88    
Minimum Humidity 47    
Precipitation  
Precipitation 0.02 in 0.13 in 1.90 in (2003)
Month to date precipitation 0.82 2.12  
Year to date precipitation 6.55 5.73  
Snow  
Snow 0.40 in 0.30 in 11.80 in (2015)
Month to date snowfall 4.1 4.5  
Since 1 July snowfall 8.1 17.1  
Snow Depth 0.00 in    
Sea Level Pressure  
Sea Level Pressure 30.04 in    
Wind  
Wind Speed 5 mph (WNW)    
Max Wind Speed 14 mph    
Max Gust Speed 21 mph    
Visibility 8 miles    
Events Fog , Snow    
T = Trace of Precipitation, MM = Missing Value Source: NWS Daily Summary

Daily Weather History Graph

Daily Weather History Graph

Search for Another Location

Airport or City:

Trip Planner

Search our weather history database for the weather conditions in past years. The results will help you decide how hot, cold, wet, or windy it might be!

Date:

Astronomy

Feb. 16, 2013 Rise Set
Actual Time 7:21 AM EST 6:13 PM EST
Civil Twilight 6:54 AM EST 6:40 PM EST
Nautical Twilight 6:23 AM EST 7:11 PM EST
Astronomical Twilight 5:53 AM EST 7:41 PM EST
Moon 10:42 AM EST (2/16) 12:04 AM EST (2/16)
Length of Visible Light 11h 46m
Length of Day
10h 52m
Waxing Crescent, 39% of the Moon is Illuminated
Feb 16
Waxing Crescent
Feb 17
First Quarter
Feb 25
Full
Mar 4
Last Quarter
Mar 11
New

Hourly Weather History & Observations

Time (EST) Temp. Windchill Dew Point Humidity Pressure Visibility Wind Dir Wind Speed Gust Speed Precip Events Conditions
12:21 AM 30.2 °F 24.3 °F 24.8 °F 80% 30.08 in 10.0 mi North 5.8 mph - N/A   Overcast
12:53 AM 30.0 °F 25.2 °F 24.1 °F 79% 30.11 in 10.0 mi North 4.6 mph - N/A   Overcast
1:53 AM 28.9 °F 23.9 °F 23.0 °F 78% 30.10 in 10.0 mi Variable 4.6 mph - N/A   Overcast
2:53 AM 27.0 °F 21.6 °F 21.9 °F 81% 30.08 in 10.0 mi Variable 4.6 mph - N/A   Scattered Clouds
3:53 AM 26.1 °F 21.9 °F 21.0 °F 81% 30.08 in 10.0 mi Variable 3.5 mph - N/A   Clear
4:53 AM 25.0 °F 20.7 °F 19.9 °F 81% 30.07 in 10.0 mi Variable 3.5 mph - N/A   Clear
5:53 AM 24.1 °F - 19.9 °F 84% 30.07 in 10.0 mi Calm Calm - N/A   Clear
6:53 AM 24.8 °F 20.5 °F 19.4 °F 80% 30.03 in 10.0 mi NNE 3.5 mph - N/A   Clear
7:53 AM 23.0 °F 18.4 °F 19.0 °F 85% 30.08 in 10.0 mi NNW 3.5 mph - N/A   Clear
8:49 AM 24.8 °F 20.5 °F 19.4 °F 80% 30.05 in 10.0 mi Variable 3.5 mph - N/A   Partly Cloudy
8:53 AM 25.0 °F 20.7 °F 19.9 °F 81% 30.09 in 10.0 mi Variable 3.5 mph - N/A   Clear
9:53 AM 27.0 °F 21.6 °F 18.0 °F 69% 30.07 in 10.0 mi Variable 4.6 mph - N/A   Clear
10:53 AM 28.9 °F 25.2 °F 15.1 °F 56% 30.06 in 10.0 mi Variable 3.5 mph - N/A   Clear
11:53 AM 30.9 °F 22.8 °F 14.0 °F 50% 30.05 in 10.0 mi WNW 9.2 mph 16.1 mph N/A   Partly Cloudy
12:53 PM 30.0 °F 25.2 °F 12.9 °F 49% 30.03 in 10.0 mi Variable 4.6 mph - N/A   Overcast
1:53 PM 30.0 °F 20.0 °F 14.0 °F 51% 30.02 in 10.0 mi WNW 12.7 mph 18.4 mph N/A   Overcast
2:53 PM 28.9 °F 19.8 °F 12.9 °F 51% 30.02 in 8.0 mi NW 10.4 mph - 0.00 in Snow Light Snow
3:53 PM 30.0 °F 22.4 °F 18.0 °F 61% 30.02 in 10.0 mi WSW 8.1 mph - 0.00 in   Mostly Cloudy
4:30 PM 26.6 °F 15.7 °F 17.6 °F 69% 29.99 in 1.2 mi West 12.7 mph 17.3 mph 0.00 in Snow Light Snow
4:33 PM 26.6 °F 15.2 °F 19.4 °F 74% 30.00 in 0.5 mi West 13.8 mph 18.4 mph 0.00 in Snow Snow
4:38 PM 24.8 °F 19.1 °F 21.2 °F 86% 29.99 in 0.2 mi Variable 4.6 mph 18.4 mph 0.01 in Fog , Snow Heavy Snow
4:53 PM 26.1 °F - 21.0 °F 81% 30.04 in 9.0 mi Calm Calm - 0.02 in Snow Light Snow
5:25 PM 26.6 °F - 19.4 °F 74% 29.99 in 7.0 mi Calm Calm - 0.00 in Snow Light Snow
5:37 PM 26.6 °F 17.5 °F 19.4 °F 74% 29.99 in 1.8 mi West 9.2 mph 18.4 mph 0.00 in Snow Light Snow
5:42 PM 26.6 °F 18.2 °F 19.4 °F 74% 29.99 in 0.8 mi WSW 8.1 mph 18.4 mph 0.00 in Snow Light Snow
5:50 PM 24.8 °F 20.5 °F 21.2 °F 86% 29.99 in 0.2 mi SW 3.5 mph - 0.00 in Fog , Snow Snow
5:53 PM 25.0 °F 19.3 °F 21.0 °F 85% 30.04 in 0.5 mi Variable 4.6 mph - 0.00 in Fog , Snow Snow
5:58 PM 24.8 °F 19.1 °F 19.4 °F 80% 29.99 in 1.2 mi Variable 4.6 mph - 0.00 in Snow Light Snow
6:00 PM 24.8 °F 17.9 °F 19.4 °F 80% 29.99 in 3.0 mi Variable 5.8 mph - 0.00 in Snow Light Snow
6:10 PM 24.8 °F 20.5 °F 19.4 °F 80% 30.00 in 9.0 mi Variable 3.5 mph - 0.00 in   Mostly Cloudy
6:53 PM 26.1 °F 18.4 °F 14.0 °F 60% 30.05 in 10.0 mi WNW 6.9 mph - 0.00 in   Clear
7:53 PM 25.0 °F 19.3 °F 9.0 °F 51% 30.06 in 10.0 mi WNW 4.6 mph - N/A   Partly Cloudy
8:53 PM 25.0 °F 17.1 °F 9.0 °F 51% 30.07 in 10.0 mi WNW 6.9 mph - N/A   Partly Cloudy
9:53 PM 24.1 °F 13.1 °F 9.0 °F 53% 30.08 in 10.0 mi NW 11.5 mph 18.4 mph N/A   Mostly Cloudy
10:53 PM 24.1 °F 17.0 °F 12.0 °F 60% 30.09 in 10.0 mi Variable 5.8 mph 16.1 mph N/A   Overcast
11:53 PM 21.0 °F 12.4 °F 12.0 °F 68% 30.11 in 9.0 mi Variable 6.9 mph - 0.00 in   Overcast